Temperature
7 8 8 8 8 7 6 6 7 9 10 11 11 11 10 10 9 9 7 6 5 5 4 4 4 5 7 9 9 9 8 8 8 7 7 7 7 6 5 5 4 3 3 2
7 9 9 9 9 8 7 7 7 7 8 10 10 9 9 9 8 8 7 5 4 4 3 4 4 5 7 8 8 8 8 7 7 7 7 6 6 5 4 3 3 2 2 1
8 10 9 9 9 8 8 8 8 7 9 10 9 9 8 8 7 7 6 4 3 3 3 4 4 6 7 7 7 7 7 7 7 6 6 5 5 4 3 2 2 1 1 1
7 8 9 11 10 9 8 9 9 9 9 9 9 8 7 6 6 6 5 4 3 3 2 3 4 5 6 6 6 7 7 6 6 6 5 4 3 3 2 1 1 1 0 -0
7 8 10 11 10 9 8 9 9 9 9 9 9 8 7 5 5 5 5 4 3 3 3 4 4 5 6 6 6 6 6 6 5 4 4 3 2 2 1 1 0 -0 -0 -1
7 8 10 11 11 9 8 10 9 8 9 9 9 10 7 4 5 4 4 4 4 3 4 4 5 5 6 6 6 6 5 5 4 3 3 2 1 1 0 -0 -0 -1 -1 -1
7 8 10 12 10 10 10 10 9 8 8 8 8 6 4 3 4 4 4 4 4 4 4 5 5 5 6 5 5 5 4 3 3 2 1 1 0 -0 -0 -1 -1 -1 -1 -2
8 9 10 12 10 10 10 9 7 6 6 5 4 3 3 3 3 4 3 3 4 4 4 4 5 5 5 5 4 4 3 2 2 1 1 0 -0 -1 -1 -1 -2 -2 -2 -3
10 11 12 9 9 8 6 6 5 5 4 4 3 2 2 3 3 3 3 3 4 5 4 4 4 5 5 4 3 3 2 1 1 0 -0 -1 -1 -1 -2 -2 -2 -3 -3 -4
10 11 11 9 8 6 5 4 4 4 3 4 3 2 2 2 2 3 3 3 3 4 4 3 4 4 4 3 2 2 1 1 0 -0 -1 -1 -2 -2 -2 -3 -3 -4 -5 -6
10 11 11 9 6 6 5 4 4 4 4 3 4 3 3 3 3 3 3 3 3 4 4 3 3 3 2 2 1 1 0 -0 -1 -1 -1 -2 -2 -2 -3 -3 -4 -5 -6 -7
12 11 11 9 6 6 5 4 4 4 3 3 4 3 4 3 3 3 3 3 3 3 3 2 2 2 1 0 0 0 -0 -1 -1 -2 -2 -2 -3 -3 -3 -4 -5 -6 -7 -7
10 8 7 6 6 5 5 4 4 4 4 3 3 4 4 4 3 3 3 3 3 3 2 1 1 0 -0 -1 -1 -1 -1 -1 -2 -2 -2 -3 -3 -4 -4 -4 -5 -6 -7 -8
8 8 7 6 5 5 5 4 4 4 4 4 4 4 4 4 3 3 3 2 2 2 1 1 0 -0 -1 -1 -1 -1 -2 -2 -2 -3 -3 -4 -4 -5 -5 -6 -6 -7 -7 -8
7 7 7 7 6 5 5 5 5 4 4 4 4 4 4 4 3 2 2 2 1 1 0 -0 -0 -1 -2 -2 -2 -2 -2 -3 -3 -3 -4 -4 -5 -5 -6 -7 -8 -8 -8 -9
7 6 7 6 5 5 5 5 6 5 4 4 4 4 3 3 2 2 1 1 1 -0 -1 -1 -1 -2 -2 -2 -3 -3 -3 -3 -4 -4 -5 -5 -6 -6 -7 -8 -9 -9 -10 -10
6 4 4 4 5 5 5 6 6 6 5 4 4 3 3 2 1 1 0 -0 -0 -1 -1 -2 -2 -2 -3 -3 -3 -3 -3 -4 -4 -5 -5 -6 -7 -7 -8 -9 -9 -10 -10 -10
7 8 8 8 7 6 5 6 6 6 5 4 3 3 2 1 1 -0 -1 -1 -1 -2 -2 -3 -3 -3 -3 -3 -3 -4 -4 -4 -5 -5 -6 -7 -8 -8 -9 -9 -10 -10 -10 -10
7 7 7 6 7 7 7 6 6 5 5 4 3 2 2 1 0 -1 -1 -1 -1 -2 -3 -3 -3 -3 -3 -4 -4 -4 -5 -5 -6 -6 -7 -8 -8 -9 -9 -10 -10 -10 -11 -11
6 7 6 6 6 6 7 6 6 5 4 4 3 2 1 0 -0 -1 -1 -2 -2 -2 -3 -3 -4 -4 -4 -4 -4 -5 -5 -6 -6 -7 -8 -8 -9 -9 -10 -10 -10 -11 -11 -11
5 6 6 6 6 6 6 6 6 5 4 3 3 2 1 -0 -1 -1 -2 -2 -3 -3 -3 -4 -4 -4 -4 -5 -5 -5 -6 -6 -7 -8 -8 -9 -9 -10 -10 -10 -11 -11 -11 -11
4 4 5 5 5 5 5 5 5 5 4 2 2 1 0 -1 -2 -2 -2 -2 -3 -3 -4 -4 -4 -4 -5 -5 -5 -6 -6 -7 -8 -8 -9 -9 -10 -10 -10 -11 -11 -11 -11 -11
3 3 4 4 5 5 5 5 4 4 3 2 2 1 0 -1 -1 -2 -2 -3 -3 -4 -4 -4 -5 -5 -5 -6 -6 -6 -7 -8 -8 -9 -9 -10 -10 -10 -11 -11 -11 -11 -11 -11
2 2 3 3 4 4 4 4 3 3 2 2 1 0 -0 -1 -2 -2 -2 -3 -3 -4 -4 -5 -5 -5 -6 -6 -6 -7 -7 -8 -8 -9 -9 -10 -10 -10 -11 -11 -11 -11 -11 -11
1 2 2 3 3 4 4 3 2 2 1 0 -0 -1 -1 -1 -2 -2 -3 -4 -4 -4 -5 -5 -5 -6 -6 -6 -7 -7 -8 -8 -9 -9 -10 -10 -10 -11 -11 -11 -11 -11 -11 -11
1 1 1 2 3 4 3 3 2 1 0 -1 -1 -2 -3 -3 -3 -3 -4 -4 -4 -5 -5 -5 -6 -6 -6 -7 -7 -8 -8 -9 -9 -9 -10 -10 -10 -11 -11 -11 -11 -11 -11 -10
-1 -0 0 1 2 2 2 2 2 1 0 -0 -1 -2 -3 -3 -3 -4 -4 -4 -5 -5 -5 -6 -6 -6 -7 -7 -8 -8 -9 -9 -9 -10 -10 -10 -10 -10 -10 -11 -10 -10 -10 -10
Wind_Speed
18 21 21 24 26 22 23 24 22 28 30 31 25 20 19 18 15 12 7 4 7 10 12 13 14 15 16 17 17 18 19 18 17 17 16 16 14 13 11 10 8 7 5 3
17 20 21 24 24 22 20 19 22 27 28 24 19 14 14 13 11 9 5 7 10 12 13 14 15 15 16 17 17 17 18 18 17 17 16 15 13 12 11 9 7 5 3 2
10 13 16 12 10 10 10 11 12 16 17 17 15 12 11 10 8 5 5 9 12 13 13 14 15 16 17 18 18 17 18 18 17 16 15 14 12 11 9 7 6 4 2 1
7 10 6 4 4 10 12 11 11 14 16 14 11 8 7 6 4 3 7 11 12 13 13 14 15 15 17 17 18 18 18 17 16 15 14 13 11 10 8 5 4 2 1 2
4 6 11 9 4 5 6 7 7 10 12 9 7 5 5 8 4 6 10 12 13 14 15 15 16 17 18 17 17 17 17 16 15 14 13 12 10 8 6 4 2 1 1 3
4 5 5 6 8 5 5 5 7 8 9 7 5 3 5 8 8 11 13 13 14 15 16 16 16 17 18 18 17 16 16 15 14 13 12 11 9 7 4 3 1 1 2 4
7 6 7 7 8 5 4 7 10 8 6 3 2 4 4 8 11 13 14 15 15 16 15 15 16 17 17 17 16 15 15 14 13 11 10 9 7 5 3 1 0 2 4 5
5 6 6 3 4 3 6 7 8 6 3 3 7 8 9 11 13 14 15 15 15 15 15 14 15 17 18 16 16 15 15 14 12 10 8 7 6 4 2 0 2 4 5 6
6 7 5 3 5 7 6 6 5 3 2 9 10 9 11 12 13 13 14 14 14 16 16 14 13 15 18 16 15 15 14 12 11 9 7 6 4 3 1 1 3 4 5 6
6 9 8 6 5 3 3 3 3 2 6 8 11 13 13 12 13 13 14 14 15 16 17 15 14 15 16 15 14 14 13 11 9 8 6 4 3 2 1 3 4 5 6 7
7 9 7 2 2 2 4 5 7 8 9 11 14 14 14 13 13 13 13 13 14 15 16 16 15 15 14 13 14 13 12 9 8 6 5 3 2 2 2 2 4 7 7 8
5 3 3 2 2 3 5 6 8 11 13 12 13 15 15 14 13 14 14 14 15 17 17 16 15 14 12 11 12 12 10 7 5 4 3 2 2 2 1 3 6 8 9 10
3 1 2 4 4 5 7 8 9 11 13 14 13 14 16 15 14 15 15 16 17 17 17 16 15 13 10 9 10 10 9 7 5 4 3 2 3 4 5 4 5 7 9 12
4 4 3 3 5 8 11 12 13 14 13 13 14 15 16 17 16 16 16 16 17 17 16 15 14 12 9 9 10 9 8 6 5 3 2 2 3 4 5 7 8 8 9 12
3 3 4 8 10 11 12 13 14 14 14 14 13 14 16 17 17 16 15 15 16 16 15 14 13 11 8 9 9 8 6 4 4 3 2 3 3 4 5 6 7 9 9 10
5 7 10 11 12 12 12 12 14 14 13 14 14 14 15 17 17 15 14 14 15 15 13 13 12 9 8 8 8 6 5 6 4 3 3 3 4 5 5 7 8 8 9 10
9 8 9 10 12 13 12 11 13 14 14 15 15 16 17 17 16 15 13 12 13 13 11 11 10 8 7 7 6 5 4 4 4 3 3 4 4 5 6 7 7 8 9 11
5 7 11 14 15 15 13 13 13 14 14 15 16 16 17 16 16 14 14 14 14 12 10 9 9 8 7 6 5 4 3 3 3 3 3 4 5 5 6 7 8 9 9 11
5 7 10 13 14 15 15 15 14 14 15 16 16 16 15 14 15 14 14 14 13 11 8 8 10 8 7 6 5 4 3 3 2 3 3 5 5 5 6 7 8 9 9 10
6 9 12 14 14 15 15 15 16 15 14 15 16 16 15 14 14 13 13 10 7 7 9 9 8 7 6 5 4 3 3 2 3 3 4 5 5 6 6 7 8 9 9 9
9 11 14 14 14 14 15 17 17 17 15 15 16 16 15 14 13 12 11 9 7 8 9 9 6 5 4 4 4 2 2 2 3 4 4 5 6 6 7 7 8 8 9 9
9 11 13 14 15 14 13 13 15 17 16 15 15 16 16 14 12 10 8 7 9 10 7 5 5 5 5 4 2 2 2 3 3 4 4 5 5 6 7 8 8 8 9 9
8 10 12 13 15 15 14 13 14 15 16 16 16 16 14 12 10 9 8 7 8 10 7 5 6 7 5 3 2 2 3 3 4 4 5 5 6 6 7 8 8 8 9 9
10 11 12 13 14 16 15 13 12 11 13 13 12 13 13 11 7 5 8 12 12 10 6 7 7 6 4 2 2 2 3 4 4 5 5 6 6 6 7 7 8 8 9 11
10 11 12 14 14 12 14 15 15 14 13 11 12 10 7 6 7 9 9 10 12 9 6 6 6 4 2 1 2 3 4 4 5 6 6 6 6 6 7 7 8 9 9 10
10 10 9 9 9 11 12 12 12 11 11 11 9 7 7 8 11 9 8 8 9 8 5 3 2 2 1 2 3 4 4 5 5 5 6 6 7 7 7 8 10 9 9 10
9 9 8 9 9 10 10 11 12 12 11 12 10 8 9 9 9 8 8 6 5 4 3 2 1 1 2 3 4 4 5 5 5 6 6 6 6 7 8 9 9 9 9 10
Wind_Direction
260 272 273 269 270 264 250 246 252 263 270 278 284 285 283 282 283 284 273 206 162 151 144 142 141 138 135 134 135 135 132 130 129 128 126 126 126 126 127 126 127 130 134 141
273 273 273 275 275 273 266 256 251 262 271 278 286 285 280 278 278 267 234 174 154 146 143 143 141 138 135 133 134 133 129 127 127 127 126 126 126 127 126 126 129 134 140 160
285 299 296 278 281 284 276 259 253 260 267 287 293 289 288 289 278 242 184 158 150 148 146 144 142 140 136 134 132 128 126 125 127 127 126 126 127 128 129 131 135 144 157 242
291 306 285 295 308 301 297 286 268 263 274 289 295 302 316 320 286 181 152 145 143 141 137 135 133 132 130 129 127 126 124 125 127 127 126 128 128 128 129 132 141 155 210 291
275 289 284 290 308 311 307 309 321 295 289 295 299 301 19 15 42 115 130 133 132 133 131 130 131 132 128 125 125 124 126 127 129 129 129 130 130 129 130 137 146 186 280 295
262 289 288 309 332 321 269 321 357 338 318 317 324 20 28 26 72 98 110 116 121 124 125 127 131 131 126 125 124 125 126 126 126 127 128 128 127 126 127 136 150 282 290 294
244 261 275 291 315 311 333 338 332 339 327 318 30 49 60 66 81 95 104 112 118 121 123 127 131 128 122 120 120 121 121 119 119 119 119 120 120 121 125 128 284 302 301 302
213 235 263 316 330 333 315 314 314 325 346 105 106 95 86 85 90 98 105 111 115 115 115 120 126 123 117 115 118 119 118 115 114 114 112 115 118 119 115 27 315 314 311 313
223 247 294 312 284 300 309 299 313 322 101 128 118 107 101 97 97 100 104 108 111 113 111 112 117 119 116 119 121 119 116 114 112 110 108 113 115 113 85 342 325 319 316 314
262 269 281 293 300 326 353 347 5 84 130 134 124 120 111 105 102 102 103 107 112 112 110 107 108 110 115 120 121 118 117 115 116 115 113 108 97 71 3 340 327 319 318 317
257 278 292 302 16 32 65 74 82 89 104 120 122 119 115 109 106 105 106 107 108 108 108 109 110 109 114 119 121 117 115 115 114 111 111 101 74 29 341 331 323 321 322 320
252 290 291 344 64 91 96 93 101 105 103 105 114 116 112 107 107 108 108 109 108 108 109 111 111 109 110 116 120 119 117 115 111 107 96 70 20 346 272 300 320 320 321 321
267 70 81 100 102 103 104 106 105 106 110 111 109 112 111 110 109 110 110 111 111 111 112 112 109 105 105 109 111 111 113 112 107 98 79 41 3 344 334 322 311 318 326 329
188 155 156 152 129 116 112 109 104 100 102 107 112 112 112 111 111 110 110 112 112 111 110 109 105 101 102 105 104 104 104 100 97 87 62 25 359 344 335 331 329 329 331 331
187 196 142 126 123 121 120 119 112 108 109 109 112 115 117 116 114 112 113 115 112 109 109 109 105 102 102 104 103 103 101 98 90 75 46 14 353 338 331 327 323 322 324 329
118 115 128 135 139 138 137 134 125 124 122 120 117 116 115 114 114 114 118 120 117 114 114 112 108 107 106 106 105 100 93 86 75 56 29 5 349 339 333 329 326 325 327 332
145 151 155 156 158 155 151 146 139 135 132 127 125 123 121 118 115 113 112 111 110 110 113 113 112 110 104 102 101 96 92 83 63 41 19 356 341 336 332 327 326 325 324 327
197 184 179 171 163 155 147 141 139 136 133 132 131 130 130 129 126 123 120 116 109 104 103 110 114 111 104 96 92 87 81 68 43 21 360 346 339 334 328 325 324 323 322 324
180 165 162 161 157 151 146 143 140 135 134 137 135 133 129 128 127 127 128 125 123 119 120 122 120 112 103 91 87 80 72 55 27 3 347 337 333 331 328 324 321 321 320 321
148 147 146 145 145 145 143 140 137 136 138 138 133 129 128 129 131 130 127 118 116 125 132 129 121 110 101 89 82 74 59 30 2 347 338 333 330 328 325 322 321 319 318 317
142 142 141 140 139 140 142 143 141 140 141 143 140 137 134 133 134 132 128 119 119 127 128 126 118 112 100 93 81 65 37 5 346 338 331 327 324 322 320 320 317 314 313 313
144 143 141 140 137 137 140 141 140 139 139 137 134 134 134 134 132 122 112 125 137 135 128 123 117 111 105 95 72 44 8 346 335 329 324 321 318 316 315 315 312 310 309 308
143 142 142 141 138 133 130 133 138 139 139 141 141 142 140 138 138 134 128 134 138 135 128 121 118 112 103 83 52 8 345 335 328 323 318 313 309 307 306 307 306 305 305 306
140 139 136 133 132 131 129 129 126 126 127 128 132 136 135 131 117 110 126 138 139 131 120 118 114 104 90 57 9 342 333 327 322 314 310 308 305 302 300 301 301 302 301 302
135 135 138 142 141 136 131 127 122 122 119 118 119 119 119 122 127 129 129 133 134 124 112 107 100 88 62 11 342 331 325 318 312 311 311 308 303 301 299 298 298 299 299 299
142 145 148 147 140 139 140 138 135 135 131 126 119 113 111 112 118 120 119 122 123 117 109 96 79 49 3 338 328 323 318 314 311 309 302 299 297 296 295 297 298 296 296 296
135 134 130 126 132 141 141 139 138 140 140 137 129 127 124 122 120 121 120 119 118 112 106 93 53 355 334 326 320 317 311 307 303 299 297 294 291 291 292 294 294 294 295 294
Height
1439 1434 1432 1429 1425 1423 1423 1417 1411 1392 1384 1374 1374 1376 1376 1374 1373 1372 1373 1373 1374 1376 1378 1382 1386 1390 1395 1401 1409 1416 1423 1431 1438 1445 1451 1457 1462 1466 1469 1471 1473 1474 1475 1474
1433 1425 1420 1415 1409 1407 1405 1402 1398 1392 1382 1374 1373 1373 1372 1370 1369 1369 1370 1371 1373 1375 1379 1382 1386 1390 1396 1403 1411 1418 1425 1433 1440 1446 1452 1457 1462 1465 1468 1470 1471 1472 1472 1471
1424 1414 1413 1405 1400 1398 1396 1391 1390 1385 1376 1372 1371 1370 1369 1367 1366 1366 1368 1370 1373 1376 1379 1383 1387 1392 1398 1405 1413 1421 1428 1436 1442 1448 1453 1458 1461 1464 1467 1468 1469 1469 1469 1467
1426 1418 1408 1397 1395 1395 1391 1385 1382 1378 1374 1372 1370 1369 1368 1366 1365 1365 1367 1370 1373 1377 1381 1385 1390 1395 1402 1409 1417 1425 1432 1438 1444 1449 1454 1458 1461 1463 1465 1466 1467 1466 1465 1464
1426 1416 1402 1392 1392 1393 1390 1383 1379 1375 1371 1370 1369 1368 1368 1367 1365 1366 1369 1372 1375 1379 1383 1388 1393 1399 1406 1414 1421 1429 1435 1441 1446 1451 1455 1458 1461 1463 1464 1464 1464 1463 1462 1460
1424 1417 1404 1391 1389 1389 1391 1381 1379 1377 1373 1371 1370 1366 1372 1372 1370 1371 1372 1375 1378 1383 1387 1392 1399 1405 1412 1418 1425 1432 1438 1443 1448 1452 1456 1458 1460 1462 1462 1462 1462 1460 1458 1455
1421 1416 1400 1390 1389 1388 1386 1384 1379 1378 1376 1374 1374 1376 1377 1375 1375 1375 1377 1380 1384 1388 1393 1398 1405 1411 1417 1423 1429 1435 1441 1445 1449 1453 1456 1458 1460 1460 1460 1460 1459 1457 1455 1451
1413 1410 1400 1388 1388 1387 1386 1382 1380 1378 1377 1376 1377 1378 1378 1379 1379 1381 1383 1386 1390 1393 1399 1405 1411 1416 1421 1427 1433 1439 1443 1447 1451 1454 1456 1458 1459 1459 1458 1457 1455 1453 1450 1447
1402 1397 1389 1389 1388 1386 1384 1382 1379 1378 1377 1377 1378 1380 1381 1382 1384 1386 1388 1391 1395 1399 1404 1410 1417 1422 1426 1432 1437 1441 1446 1449 1452 1454 1456 1457 1457 1457 1455 1454 1452 1449 1446 1443
1398 1390 1388 1387 1386 1384 1382 1380 1378 1377 1377 1378 1379 1381 1384 1386 1388 1391 1394 1397 1401 1405 1409 1415 1422 1428 1432 1436 1441 1445 1448 1451 1453 1454 1455 1456 1455 1454 1453 1450 1448 1445 1442 1438
1394 1388 1386 1385 1385 1384 1382 1380 1379 1379 1379 1381 1382 1384 1387 1389 1392 1395 1399 1402 1407 1411 1415 1420 1427 1432 1437 1441 1444 1447 1450 1452 1453 1454 1454 1454 1453 1452 1450 1447 1445 1442 1438 1435
1387 1386 1387 1386 1385 1384 1383 1382 1382 1382 1383 1385 1386 1388 1391 1394 1397 1400 1404 1408 1412 1417 1421 1426 1432 1436 1440 1444 1447 1449 1451 1452 1453 1453 1453 1452 1451 1449 1447 1445 1442 1438 1434 1431
1386 1386 1386 1385 1385 1385 1385 1385 1385 1386 1387 1388 1391 1394 1396 1399 1403 1406 1410 1415 1418 1423 1427 1432 1436 1440 1443 1446 1449 1450 1451 1452 1452 1452 1452 1450 1449 1447 1444 1442 1439 1435 1431 1427
1384 1385 1385 1385 1386 1387 1387 1388 1389 1390 1392 1394 1396 1399 1402 1404 1409 1413 1417 1421 1425 1429 1433 1437 1440 1443 1446 1448 1450 1451 1452 1452 1452 1451 1450 1448 1446 1444 1441 1438 1435 1431 1427 1423
1382 1383 1384 1384 1386 1387 1389 1391 1392 1394 1397 1399 1402 1405 1407 1410 1414 1418 1423 1427 1430 1434 1437 1441 1443 1446 1448 1450 1451 1451 1451 1451 1450 1449 1448 1446 1444 1441 1438 1435 1431 1427 1423 1419
1380 1381 1383 1384 1386 1388 1391 1393 1395 1398 1400 1403 1406 1410 1413 1416 1420 1424 1428 1433 1435 1438 1441 1444 1446 1448 1449 1451 1451 1451 1451 1450 1449 1448 1446 1444 1441 1439 1435 1432 1428 1424 1420 1415
1378 1379 1381 1383 1385 1388 1392 1395 1397 1400 1403 1407 1410 1414 1417 1420 1424 1428 1432 1436 1439 1441 1444 1446 1448 1449 1450 1451 1451 1451 1450 1449 1448 1446 1444 1442 1439 1436 1433 1429 1426 1422 1418 1413
1377 1378 1379 1381 1383 1387 1392 1396 1399 1403 1406 1410 1413 1417 1421 1424 1427 1431 1435 1438 1441 1443 1446 1448 1449 1450 1451 1451 1451 1451 1450 1448 1447 1445 1442 1440 1437 1434 1431 1427 1423 1419 1415 1411
1375 1377 1378 1381 1384 1388 1392 1396 1401 1405 1409 1412 1416 1420 1423 1427 1430 1434 1437 1440 1443 1445 1447 1449 1450 1451 1451 1451 1451 1450 1449 1447 1445 1443 1440 1438 1435 1432 1428 1425 1421 1417 1413 1408
1373 1375 1377 1380 1384 1388 1393 1397 1402 1406 1410 1414 1418 1422 1425 1429 1433 1436 1439 1442 1445 1447 1448 1449 1451 1451 1451 1451 1450 1449 1447 1445 1443 1441 1438 1436 1433 1429 1426 1422 1419 1415 1411 1407
1373 1375 1377 1380 1384 1389 1394 1398 1402 1407 1411 1416 1419 1423 1427 1431 1435 1438 1441 1443 1446 1447 1449 1450 1451 1451 1451 1450 1449 1447 1445 1443 1441 1439 1436 1433 1430 1427 1424 1420 1416 1412 1408 1404
1373 1375 1377 1380 1384 1389 1394 1399 1404 1408 1412 1416 1421 1425 1428 1431 1435 1439 1442 1444 1446 1448 1449 1450 1450 1450 1450 1449 1447 1446 1444 1441 1439 1436 1434 1431 1427 1424 1421 1417 1414 1410 1406 1402
1373 1375 1378 1381 1385 1389 1394 1400 1405 1409 1413 1417 1421 1425 1429 1432 1436 1439 1442 1445 1446 1448 1449 1450 1450 1449 1449 1447 1446 1444 1442 1439 1437 1434 1431 1428 1425 1421 1418 1414 1411 1407 1404 1400
1373 1376 1378 1382 1386 1390 1395 1400 1405 1410 1414 1419 1423 1427 1430 1433 1437 1440 1443 1444 1446 1448 1449 1449 1449 1448 1447 1446 1444 1442 1439 1437 1434 1431 1428 1425 1422 1418 1415 1412 1408 1405 1402 1398
1374 1376 1379 1383 1387 1391 1395 1400 1406 1411 1415 1419 1424 1428 1432 1435 1437 1440 1442 1444 1446 1447 1448 1448 1447 1447 1445 1444 1442 1439 1437 1434 1431 1428 1425 1422 1419 1415 1412 1409 1406 1403 1400 1396
1374 1377 1380 1384 1387 1391 1396 1400 1405 1410 1415 1419 1424 1428 1432 1435 1438 1440 1442 1444 1445 1446 1447 1447 1446 1445 1443 1442 1439 1437 1434 1431 1429 1425 1422 1419 1416 1413 1410 1407 1404 1401 1397 1395
1375 1377 1380 1384 1388 1393 1397 1402 1406 1410 1415 1419 1422 1427 1431 1435 1437 1440 1442 1444 1445 1445 1445 1445 1444 1443 1441 1439 1437 1434 1431 1428 1425 1422 1419 1416 1413 1410 1407 1404 1401 1398 1395 1393